Regional Weather Roundup
Issued by NWS Newport/Morehead, NC

Current Version | Previous Version | Graphics & Text | Print | Product List | Glossary Off
Versions: 1 2 3 4 5 6 7 8 9 10 11 12 13 14 15 16 17 18 19 20 21 22 23 24 25 26 27 28 29 30 31 32 33 34 35 36 37 38 39 40 41 42 43 44 45 46 47 48 49 50

000
ASUS42 KMHX 290410
RWRMHX
WEATHER ROUNDUP FOR EASTERN NORTH CAROLINA
NATIONAL WEATHER SERVICE NEWPORT/MOREHEAD CITY NC
1100 PM EST WED JAN 28 2015

NOTE: "FAIR" INDICATES FEW OR NO CLOUDS BELOW 12,000 FEET
WITH NO SIGNIFICANT WEATHER AND/OR OBSTRUCTIONS TO VISIBILITY

NCZ015>017-031-032-045>047-102-103-290500-
NORTH COAST

CITY           SKY/WX    TMP DP  RH WIND       PRES   REMARKS
EDENTON        CLEAR     30  14  51 N3        30.33R
ELIZABETH CITY CLEAR     30  14  51 N8        30.33R
KITTY HAWK     CLEAR     34  17  49 NW6       30.30R
MANTEO         CLEAR     36  18  48 N10G17    30.31S

$$

NCZ045>047-081-094-103-104-290500-
CENTRAL COAST

CITY           SKY/WX    TMP DP  RH WIND       PRES   REMARKS
FRISCO         CLEAR     37  15  40 VRB6      30.31R
SWANQUARTER    NOT AVBL

$$

NCZ095-097-098-100-101-290500-
SOUTHERN COAST

CITY           SKY/WX    TMP DP  RH WIND       PRES   REMARKS
BEAUFORT       CLEAR     34  21  59 N5        30.33R
CEDAR ISLAND   NOT AVBL
JACKSONVILLE   CLEAR     27  22  81 SW3       30.34R
PINEY ISLAND     N/A    N/A N/A N/A MISG      30.32R
WILMINGTON     CLEAR     28  23  81 CALM      30.34R


$$

NCZ011>013-027>030-043-044-078>080-089-090>093-098-290500-
COASTAL PLAIN

CITY           SKY/WX    TMP DP  RH WIND       PRES   REMARKS
AHOSKIE        CLEAR     24  16  72 CALM      30.35R
CLINTON        CLEAR     27  24  88 CALM      30.34S
ELIZABETHTOWN  CLEAR     29  22  75 CALM      30.34S
GOLDSBORO      CLEAR     28  25  86 CALM      30.32R
GREENVILLE     CLEAR     27  23  86 CALM      30.34S
HAVELOCK       CLEAR     28  18  66 SW3       30.34R
KENANSVILLE    CLEAR     25  21  85 CALM      30.35R
KINSTON        CLEAR     26  20  78 CALM      30.34S
NEW BERN       CLEAR     28  20  71 CALM      30.34S
RICHLANDS      CLEAR     25  19  80 CALM      30.34R
ROCKY MOUNT    CLEAR     27  19  72 CALM      30.34R
WASHINGTON     CLEAR     27  17  67 CALM      30.34R
WHITEVILLE     CLEAR     29  24  81 CALM      30.34S

$$

AMZ130-135-150-152-154-156-158-170-250-252-270-ANZ085-086-088-633-658-670-290500-
MARINE OBSERVATIONS

STATION/POSITION TIME  TEMP    WIND        PRES    WAVE   SWELL
                       AIR SEA DIR/SP/G            HT/PER HT/PER
                 (UTC) (F)     (DEG/KT/KT) (MB)    (FT/S) (FT/S)
CHESAPEAKE LIGHT 0300   35     360/ 22/ 24 1026.1
64 E VA BEACH    0400   38 50  350/ 19/ 23 1024.7    8/ 7   3/13
DUCK             0400   35 42  330/ 15/ 18 1025.4
2 E DUCK         0400      42                N/A     5/ 6   2/13
10 NE DUCK       0400      45                N/A     6/13   2/13
OREGON INLET     0400   34 42  320/  7/  9 1026.1
13E OREGON INLT  0400      45                N/A     8/13   3/13
HATTERAS CG      0400   40 44  350/ 17/ 21 1026.4
DIAMOND BUOY     0400   41     350/ 19/ 23 1025.4    6/13   5/13
17 S OCRACOKE    NOT AVBL
CAPE LOOKOUT     0300   39     340/ 11/ 13 1026.2
BEAUFORT LAB     0400   35 46  320/  4/  6 1025.9
27 SE WRIGHTSVLE NOT AVBL
5 SE WRIGHTSVLE  0300   44 52   10/ 10/ 14 1026.7
225 S CAPE HAT   0255   56 71  350/ 21/ 27 1023.0   11/ 8   3/13
41 SE CHARLESTON 0400   49 66   20/ 14/ 17 1026.6    4/ 7   2/ 7

$$



USA.gov is the U.S. government's official web portal to all federal, state and local government web resources and services.